Weather History for KSUA - March, 2013

Change the Weather History Date:

Wednesday, March 27, 2013

  Actual Average Record
Temperature  
Mean Temperature 53 °F -  
Max Temperature 62 °F 78 °F 90 °F (1984)
Min Temperature 44 °F 61 °F 37 °F (1971)
Degree Days  
Heating Degree Days 12    
Growing Degree Days 3 (Base 50)    
Moisture  
Dew Point 35 °F    
Average Humidity 52    
Maximum Humidity 67    
Minimum Humidity 37    
Precipitation  
Precipitation 0.00 in - - ()
Sea Level Pressure  
Sea Level Pressure 30.24 in    
Wind  
Wind Speed 9 mph (NNW)    
Max Wind Speed 13 mph    
Max Gust Speed 20 mph    
Visibility 10 miles    
Events      
Averages and records for this station are not official NWS values.
T = Trace of Precipitation, MM = Missing Value Source: NWS Daily Summary

Daily Weather History Graph

Daily Weather History Graph

Search for Another Location

Airport or City:

Trip Planner

Search our weather history database for the weather conditions in past years. The results will help you decide how hot, cold, wet, or windy it might be!

Date:

Astronomy

Mar. 27, 2013 Rise Set
Actual Time 7:16 AM EDT 7:35 PM EDT
Civil Twilight 6:53 AM EDT 7:59 PM EDT
Nautical Twilight 6:26 AM EDT 8:26 PM EDT
Astronomical Twilight 5:58 AM EDT 8:54 PM EDT
Moon 8:10 PM EDT (3/27) 7:11 AM EDT (3/27)
Length of Visible Light 13h 05m
Length of Day
12h 19m
Full, 100% of the Moon is Illuminated
Mar 27
Full
Apr 3
Last Quarter
Apr 10
New
Apr 18
First Quarter
Apr 25
Full

Hourly Weather History & Observations

Time (EDT) Temp. Windchill Dew Point Humidity Pressure Visibility Wind Dir Wind Speed Gust Speed Precip Events Conditions
12:15 AM 50.0 °F - 28.4 °F 43% 30.24 in 10.0 mi NW 11.5 mph 18.4 mph N/A   Clear
12:35 AM 50.0 °F - 30.2 °F 47% 30.24 in 10.0 mi NW 11.5 mph 19.6 mph N/A   Clear
12:55 AM 50.0 °F - 32.0 °F 50% 30.23 in 10.0 mi NW 12.7 mph 18.4 mph N/A   Clear
1:15 AM 48.2 °F - 32.0 °F 54% 30.23 in 10.0 mi NW 11.5 mph - N/A   Clear
1:35 AM 48.2 °F - 32.0 °F 54% 30.23 in 10.0 mi NW 12.7 mph - N/A   Clear
1:55 AM 48.2 °F - 32.0 °F 54% 30.22 in 10.0 mi NW 9.2 mph 18.4 mph N/A   Clear
2:15 AM 46.4 °F 41.5 °F 32.0 °F 57% 30.22 in 10.0 mi NW 10.4 mph - N/A   Clear
2:35 AM 46.4 °F 41.9 °F 33.8 °F 62% 30.21 in 10.0 mi NW 9.2 mph - N/A   Clear
2:55 AM 46.4 °F 42.4 °F 33.8 °F 62% 30.21 in 10.0 mi NW 8.1 mph - N/A   Clear
3:15 AM 46.4 °F 42.9 °F 33.8 °F 62% 30.21 in 10.0 mi NW 6.9 mph - N/A   Clear
3:35 AM 46.4 °F 42.9 °F 33.8 °F 62% 30.21 in 10.0 mi NW 6.9 mph - N/A   Clear
3:55 AM 44.6 °F 40.2 °F 33.8 °F 66% 30.20 in 10.0 mi NNW 8.1 mph - N/A   Clear
4:15 AM 44.6 °F 40.2 °F 33.8 °F 66% 30.20 in 10.0 mi NW 8.1 mph - N/A   Clear
4:35 AM 44.6 °F 40.2 °F 33.8 °F 66% 30.21 in 10.0 mi NW 8.1 mph - N/A   Clear
4:55 AM 46.4 °F 42.9 °F 32.0 °F 57% 30.21 in 10.0 mi NNW 6.9 mph - N/A   Clear
5:15 AM 46.4 °F 41.9 °F 32.0 °F 57% 30.21 in 10.0 mi NNW 9.2 mph - N/A   Clear
5:35 AM 46.4 °F 41.9 °F 32.0 °F 57% 30.21 in 10.0 mi NNW 9.2 mph 16.1 mph N/A   Clear
5:55 AM 46.4 °F 41.9 °F 30.2 °F 53% 30.21 in 10.0 mi NNW 9.2 mph 17.3 mph N/A   Clear
6:15 AM 46.4 °F 41.9 °F 30.2 °F 53% 30.22 in 10.0 mi NNW 9.2 mph - N/A   Clear
6:47 AM 48.2 °F - 28.4 °F 46% 30.23 in 10.0 mi North - - N/A   Partly Cloudy
7:47 AM 48.2 °F - 28.4 °F 46% 30.25 in 10.0 mi North - - N/A   Partly Cloudy
8:47 AM 51.8 °F - 30.2 °F 44% 30.26 in 10.0 mi North - - N/A   Partly Cloudy
9:47 AM 55.4 °F - 33.8 °F 44% 30.28 in 10.0 mi North - - N/A   Partly Cloudy
10:47 AM 59.0 °F - 35.6 °F 42% 30.29 in 10.0 mi NNW 11.5 mph - N/A   Partly Cloudy
11:47 AM 62.6 °F - 35.6 °F 37% 30.29 in 10.0 mi NW 12.7 mph - N/A   Partly Cloudy
12:47 PM 62.6 °F - 35.6 °F 37% 30.28 in 10.0 mi North 11.5 mph - N/A   Partly Cloudy
2:47 PM 62.6 °F - 37.4 °F 39% 30.24 in 10.0 mi North 11.5 mph - N/A   Partly Cloudy
3:47 PM 62.6 °F - 39.2 °F 42% 30.22 in 10.0 mi North 12.7 mph - N/A   Partly Cloudy
4:47 PM 62.6 °F - 39.2 °F 42% 30.21 in 10.0 mi North 12.7 mph - N/A   Partly Cloudy
6:47 PM 60.8 °F - 39.2 °F 45% 30.23 in 10.0 mi North 11.5 mph - N/A   Clear
8:15 PM 59.0 °F - 37.4 °F 45% 30.24 in 10.0 mi North 6.9 mph - N/A   Clear
8:35 PM 57.2 °F - 37.4 °F 48% 30.24 in 10.0 mi NNE 4.6 mph - N/A   Clear
8:55 PM 59.0 °F - 37.4 °F 45% 30.24 in 10.0 mi NNE 3.5 mph - N/A   Clear
9:15 PM 57.2 °F - 37.4 °F 48% 30.25 in 10.0 mi North 3.5 mph - N/A   Clear
9:35 PM 57.2 °F - 37.4 °F 48% 30.25 in 10.0 mi North 3.5 mph - N/A   Clear
9:55 PM 57.2 °F - 37.4 °F 48% 30.25 in 10.0 mi North 3.5 mph - N/A   Clear
10:15 PM 57.2 °F - 39.2 °F 51% 30.25 in 10.0 mi NNW 3.5 mph - N/A   Clear
10:35 PM 55.4 °F - 41.0 °F 58% 30.26 in 10.0 mi Calm Calm - N/A   Clear
10:55 PM 53.6 °F - 41.0 °F 62% 30.26 in 10.0 mi NNW 3.5 mph - N/A   Clear
11:15 PM 53.6 °F - 41.0 °F 62% 30.26 in 10.0 mi NW 3.5 mph - N/A   Clear
11:35 PM 55.4 °F - 42.8 °F 63% 30.26 in 10.0 mi NNW 3.5 mph - N/A   Clear
11:55 PM 53.6 °F - 42.8 °F 67% 30.26 in 10.0 mi NNW 3.5 mph - N/A   Clear